| time (UTC) | temp F | wind direction | speed knots | gust knots | rain 1hr in | rain 24hr in | rain mn in | humidity % | barometer mb |
| 20260505200009 | 84 | 117 | 7.8 | 13.0 | 0.00 | 0.00 | 0.00 | 34 | 1014.7 |
| 20260505195506 | 85 | 0 | 0.0 | 14.8 | 0.00 | 0.00 | 0.00 | 35 | 1014.9 |
| 20260505195006 | 85 | 0 | 0.0 | 18.2 | 0.00 | 0.00 | 0.00 | 34 | 1014.9 |
| 20260505194506 | 85 | 172 | 1.7 | 18.2 | 0.00 | 0.00 | 0.00 | 35 | 1015.0 |
| 20260505194006 | 85 | 178 | 4.3 | 18.2 | 0.00 | 0.00 | 0.00 | 34 | 1015.2 |
| 20260505193007 | 86 | 166 | 7.8 | 13.0 | 0.00 | 0.00 | 0.00 | 34 | 1015.3 |
| 20260505192506 | 86 | 0 | 0.0 | 14.8 | 0.00 | 0.00 | 0.00 | 33 | 1015.4 |
| 20260505192006 | 86 | 150 | 4.3 | 14.8 | 0.00 | 0.00 | 0.00 | 34 | 1015.5 |
| 20260505191506 | 86 | 148 | 4.3 | 11.3 | 0.00 | 0.00 | 0.00 | 34 | 1015.5 |
| 20260505191006 | 86 | 145 | 1.7 | 13.0 | 0.00 | 0.00 | 0.00 | 34 | 1015.3 |
| 20260505190506 | 86 | 135 | 4.3 | 13.0 | 0.00 | 0.00 | 0.00 | 34 | 1015.7 |
| 20260505190010 | 85 | 134 | 4.3 | 11.3 | 0.00 | 0.00 | 0.00 | 34 | 1015.5 |
| 20260505185506 | 85 | 0 | 0.0 | 14.8 | 0.00 | 0.00 | 0.00 | 33 | 1015.4 |
| 20260505185006 | 86 | 151 | 4.3 | 14.8 | 0.00 | 0.00 | 0.00 | 31 | 1015.6 |
| 20260505184506 | 85 | 276 | 7.8 | 14.8 | 0.00 | 0.00 | 0.00 | 31 | 1015.6 |
| 20260505184006 | 85 | 264 | 4.3 | 11.3 | 0.00 | 0.00 | 0.00 | 31 | 1015.5 |
| 20260505183506 | 85 | 0 | 0.0 | 18.2 | 0.00 | 0.00 | 0.00 | 29 | 1015.6 |
| 20260505183006 | 85 | 201 | 4.3 | 18.2 | 0.00 | 0.00 | 0.00 | 30 | 1015.6 |
| 20260505182506 | 86 | 257 | 7.8 | 18.2 | 0.00 | 0.00 | 0.00 | 29 | 1015.9 |
| 20260505182006 | 86 | 0 | 0.0 | 11.3 | 0.00 | 0.00 | 0.00 | 31 | 1015.6 |
| 20260505181506 | 85 | 159 | 4.3 | 11.3 | 0.00 | 0.00 | 0.00 | 31 | 1015.8 |
| 20260505181006 | 85 | 120 | 6.1 | 13.0 | 0.00 | 0.00 | 0.00 | 34 | 1015.6 |
| 20260505180506 | 85 | 228 | 1.7 | 13.0 | 0.00 | 0.00 | 0.00 | 34 | 1015.8 |
| 20260505180009 | 85 | 232 | 4.3 | 13.0 | 0.00 | 0.00 | 0.00 | 34 | 1015.8 |
| 20260505175506 | 85 | 182 | 1.7 | 13.0 | 0.00 | 0.00 | 0.00 | 34 | 1015.7 |
| 20260505175006 | 85 | 0 | 0.0 | 11.3 | 0.00 | 0.00 | 0.00 | 35 | 1015.8 |
| 20260505174006 | 85 | 192 | 1.7 | 14.8 | 0.00 | 0.00 | 0.00 | 33 | 1015.9 |
| 20260505173506 | 85 | 210 | 1.7 | 14.8 | 0.00 | 0.00 | 0.00 | 33 | 1015.9 |
| 20260505173006 | 84 | 0 | 0.0 | 9.6 | 0.00 | 0.00 | 0.00 | 34 | 1016.1 |
| 20260505172506 | 84 | 192 | 4.3 | 11.3 | 0.00 | 0.00 | 0.00 | 35 | 1016.2 |
| 20260505172006 | 84 | 155 | 4.3 | 11.3 | 0.00 | 0.00 | 0.00 | 35 | 1016.1 |
| 20260505171506 | 83 | 0 | 0.0 | 13.0 | 0.00 | 0.00 | 0.00 | 36 | 1016.1 |
| 20260505171006 | 83 | 161 | 1.7 | 18.2 | 0.00 | 0.00 | 0.00 | 36 | 1016.1 |
| 20260505170506 | 83 | 155 | 4.3 | 18.2 | 0.00 | 0.00 | 0.00 | 36 | 1016.3 |
| 20260505170011 | 83 | 124 | 1.7 | 8.7 | 0.00 | 0.00 | 0.00 | 38 | 1016.4 |
| 20260505165506 | 82 | 121 | 1.7 | 8.7 | 0.00 | 0.00 | 0.00 | 38 | 1016.4 |
| 20260505165006 | 82 | 201 | 4.3 | 8.7 | 0.00 | 0.00 | 0.00 | 38 | 1016.6 |
| 20260505164505 | 82 | 166 | 4.3 | 11.3 | 0.00 | 0.00 | 0.00 | 39 | 1016.3 |
| 20260505163506 | 81 | 0 | 0.0 | 9.6 | 0.00 | 0.00 | 0.00 | 41 | 1016.5 |
| 20260505163009 | 80 | 0 | 0.0 | 8.7 | 0.00 | 0.00 | 0.00 | 42 | 1016.6 |
| 20260505162506 | 80 | 202 | 1.7 | 8.7 | 0.00 | 0.00 | 0.00 | 42 | 1016.7 |
| 20260505161506 | 79 | 249 | 1.7 | 11.3 | 0.00 | 0.00 | 0.00 | 43 | 1016.9 |
| 20260505161006 | 79 | 0 | 0.0 | 11.3 | 0.00 | 0.00 | 0.00 | 44 | 1016.9 |
| 20260505160506 | 78 | 219 | 1.7 | 11.3 | 0.00 | 0.00 | 0.00 | 45 | 1017.0 |
| 20260505153006 | 76 | 0 | 0.0 | 11.3 | 0.00 | 0.00 | 0.00 | 49 | 1017.1 |
| 20260505152506 | 76 | 0 | 0.0 | 11.3 | 0.00 | 0.00 | 0.00 | 50 | 1017.0 |
| 20260505152006 | 75 | 166 | 4.3 | 11.3 | 0.00 | 0.00 | 0.00 | 53 | 1016.9 |
| 20260505151506 | 74 | 0 | 0.0 | 9.6 | 0.00 | 0.00 | 0.00 | 53 | 1016.9 |
| 20260505151006 | 74 | 0 | 0.0 | 7.0 | 0.00 | 0.00 | 0.00 | 54 | 1017.0 |
| 20260505150506 | 74 | 0 | 0.0 | 8.7 | 0.00 | 0.00 | 0.00 | 54 | 1017.1 |
| 20260505125006 | 64 | 0 | 0.0 | 9.6 | 0.00 | 0.00 | 0.00 | 72 | 1017.4 |
| 20260505124506 | 64 | 218 | 4.3 | 9.6 | 0.00 | 0.00 | 0.00 | 72 | 1017.4 |
| 20260505124006 | 64 | 207 | 4.3 | 9.6 | 0.00 | 0.00 | 0.00 | 73 | 1017.4 |
| 20260505123505 | 63 | 261 | 1.7 | 11.3 | 0.00 | 0.00 | 0.00 | 73 | 1017.3 |
| 20260505123006 | 63 | 261 | 1.7 | 11.3 | 0.00 | 0.00 | 0.00 | 74 | 1017.2 |
| 20260505122505 | 63 | 0 | 0.0 | 13.0 | 0.00 | 0.00 | 0.00 | 75 | 1017.2 |
| 20260505122006 | 62 | 0 | 0.0 | 13.0 | 0.00 | 0.00 | 0.00 | 76 | 1017.2 |
| 20260505121505 | 62 | 201 | 1.7 | 7.0 | 0.00 | 0.00 | 0.00 | 76 | 1017.2 |
| 20260505121006 | 62 | 0 | 0.0 | 7.0 | 0.00 | 0.00 | 0.00 | 76 | 1017.4 |
| 20260505120506 | 62 | 0 | 0.0 | 8.7 | 0.00 | 0.00 | 0.00 | 77 | 1017.3 |
| 20260505115506 | 61 | 0 | 0.0 | 7.0 | 0.00 | 0.00 | 0.00 | 77 | 1017.2 |
| 20260505115006 | 61 | 0 | 0.0 | 7.0 | 0.00 | 0.00 | 0.00 | 78 | 1017.3 |
| 20260505114506 | 61 | 202 | 1.7 | 7.0 | 0.00 | 0.00 | 0.00 | 78 | 1017.3 |
| 20260505114006 | 61 | 0 | 0.0 | 7.0 | 0.00 | 0.00 | 0.00 | 78 | 1017.1 |
| 20260505113506 | 61 | 0 | 0.0 | 7.0 | 0.00 | 0.00 | 0.00 | 78 | 1017.3 |
| 20260505113007 | 60 | 275 | 4.3 | 7.0 | 0.00 | 0.00 | 0.00 | 78 | 1017.2 |
| 20260505112506 | 60 | 0 | 0.0 | 7.0 | 0.00 | 0.00 | 0.00 | 78 | 1017.1 |
| 20260505112006 | 60 | 0 | 0.0 | 3.5 | 0.00 | 0.00 | 0.00 | 78 | 1017.0 |
| 20260505111006 | 60 | 0 | 0.0 | 7.0 | 0.00 | 0.00 | 0.00 | 78 | 1017.0 |
| 20260505110506 | 60 | 0 | 0.0 | 5.2 | 0.00 | 0.00 | 0.00 | 78 | 1017.0 |
| 20260505102006 | 60 | 175 | 1.7 | 5.2 | 0.00 | 0.00 | 0.00 | 77 | 1016.5 |
| 20260505101506 | 60 | 0 | 0.0 | 5.2 | 0.00 | 0.00 | 0.00 | 77 | 1016.3 |
| 20260505101006 | 60 | 0 | 0.0 | 5.2 | 0.00 | 0.00 | 0.00 | 76 | 1016.3 |
| 20260505100506 | 60 | 0 | 0.0 | 5.2 | 0.00 | 0.00 | 0.00 | 76 | 1016.1 |
| 20260505095506 | 60 | 0 | 0.0 | 3.5 | 0.00 | 0.00 | 0.00 | 76 | 1016.1 |
| 20260505095006 | 60 | 0 | 0.0 | 5.2 | 0.00 | 0.00 | 0.00 | 76 | 1016.1 |
| 20260505094506 | 60 | 0 | 0.0 | 5.2 | 0.00 | 0.00 | 0.00 | 75 | 1016.1 |
| 20260505094006 | 60 | 193 | 1.7 | 5.2 | 0.00 | 0.00 | 0.00 | 75 | 1015.9 |
| 20260505093506 | 60 | 0 | 0.0 | 5.2 | 0.00 | 0.00 | 0.00 | 75 | 1016.0 |
| 20260505092506 | 61 | 0 | 0.0 | 7.0 | 0.00 | 0.00 | 0.00 | 75 | 1015.8 |
| 20260505091005 | 61 | 177 | 1.7 | 7.0 | 0.00 | 0.00 | 0.00 | 74 | 1015.9 |
| 20260505090010 | 61 | 0 | 0.0 | 8.7 | 0.00 | 0.00 | 0.00 | 73 | 1015.8 |
| 20260505085506 | 61 | 239 | 1.7 | 8.7 | 0.00 | 0.00 | 0.00 | 73 | 1015.7 |
| 20260505084006 | 61 | 0 | 0.0 | 5.2 | 0.00 | 0.00 | 0.00 | 72 | 1015.6 |
| 20260505083506 | 61 | 0 | 0.0 | 5.2 | 0.00 | 0.00 | 0.00 | 72 | 1015.8 |
| 20260505083006 | 61 | 206 | 1.7 | 5.2 | 0.00 | 0.00 | 0.00 | 71 | 1015.7 |
| 20260505082505 | 62 | 193 | 1.7 | 5.2 | 0.00 | 0.00 | 0.00 | 71 | 1015.8 |
| 20260505081006 | 62 | 0 | 0.0 | 5.2 | 0.00 | 0.00 | 0.00 | 70 | 1015.6 |
| 20260505080506 | 62 | 0 | 0.0 | 5.2 | 0.00 | 0.00 | 0.00 | 70 | 1015.7 |
| 20260505080009 | 62 | 0 | 0.0 | 3.5 | 0.00 | 0.00 | 0.00 | 70 | 1015.5 |
| 20260505075506 | 62 | 0 | 0.0 | 0.0 | 0.00 | 0.00 | 0.00 | 69 | 1015.7 |
| 20260505075006 | 62 | 0 | 0.0 | 1.7 | 0.00 | 0.00 | 0.00 | 69 | 1015.7 |
| 20260505074506 | 62 | 0 | 0.0 | 5.2 | 0.00 | 0.00 | 0.00 | 69 | 1015.6 |
| 20260505074006 | 62 | 0 | 0.0 | 5.2 | 0.00 | 0.00 | 0.00 | 69 | 1015.6 |
| 20260505073505 | 62 | 0 | 0.0 | 5.2 | 0.00 | 0.00 | 0.00 | 69 | 1015.4 |
| 20260505073006 | 62 | 0 | 0.0 | 7.0 | 0.00 | 0.00 | 0.00 | 69 | 1015.4 |
| 20260505072505 | 63 | 0 | 0.0 | 7.0 | 0.00 | 0.00 | 0.00 | 68 | 1015.3 |
| 20260505072005 | 63 | 0 | 0.0 | 8.7 | 0.00 | 0.00 | 0.00 | 68 | 1015.3 |
| 20260505071005 | 63 | 0 | 0.0 | 5.2 | 0.00 | 0.00 | 0.00 | 68 | 1015.3 |
| 20260505070009 | 63 | 0 | 0.0 | 5.2 | 0.00 | 0.00 | 0.00 | 67 | 1015.1 |
| 20260505065506 | 63 | 0 | 0.0 | 5.2 | 0.00 | 0.00 | 0.00 | 67 | 1015.1 |
| 20260505065005 | 63 | 0 | 0.0 | 3.5 | 0.00 | 0.00 | 0.00 | 67 | 1015.2 |
| 20260505064506 | 63 | 0 | 0.0 | 1.7 | 0.00 | 0.00 | 0.00 | 66 | 1015.2 |
| 20260505064006 | 63 | 0 | 0.0 | 5.2 | 0.00 | 0.00 | 0.00 | 66 | 1015.2 |
| 20260505063506 | 63 | 0 | 0.0 | 5.2 | 0.00 | 0.00 | 0.00 | 66 | 1015.2 |
| 20260505063006 | 63 | 0 | 0.0 | 1.7 | 0.00 | 0.00 | 0.00 | 65 | 1015.3 |
| 20260505062006 | 64 | 0 | 0.0 | 3.5 | 0.00 | 0.00 | 0.00 | 65 | 1015.3 |
| 20260505061506 | 64 | 0 | 0.0 | 1.7 | 0.00 | 0.00 | 0.00 | 65 | 1015.3 |
| 20260505061006 | 64 | 0 | 0.0 | 1.7 | 0.00 | 0.00 | 0.00 | 65 | 1015.4 |
| 20260505060506 | 64 | 0 | 0.0 | 1.7 | 0.00 | 0.00 | 0.00 | 64 | 1015.5 |
| 20260505055506 | 64 | 0 | 0.0 | 5.2 | 0.00 | 0.00 | 0.00 | 64 | 1015.6 |
| 20260505054006 | 64 | 0 | 0.0 | 0.0 | 0.00 | 0.00 | 0.00 | 63 | 1015.6 |
| 20260505053506 | 65 | 0 | 0.0 | 3.5 | 0.00 | 0.00 | 0.00 | 63 | 1015.6 |
| 20260505053006 | 65 | 0 | 0.0 | 5.2 | 0.00 | 0.00 | 0.00 | 63 | 1015.8 |
| 20260505052506 | 65 | 0 | 0.0 | 5.2 | 0.00 | 0.00 | 0.00 | 63 | 1015.5 |
| 20260505052006 | 65 | 0 | 0.0 | 0.0 | 0.00 | 0.00 | 0.00 | 63 | 1015.6 |
| 20260505051506 | 65 | 0 | 0.0 | 7.0 | 0.00 | 0.00 | 0.00 | 63 | 1015.7 |
| 20260505051006 | 65 | 0 | 0.0 | 7.0 | 0.00 | 0.00 | 0.00 | 63 | 1015.7 |
| 20260505050506 | 65 | 0 | 0.0 | 5.2 | 0.00 | 0.00 | 0.00 | 63 | 1015.7 |
| 20260505041506 | 66 | 0 | 0.0 | 5.2 | 0.00 | 0.00 | 0.00 | 60 | 1015.5 |
| 20260505041005 | 66 | 0 | 0.0 | 1.7 | 0.00 | 0.00 | 0.00 | 60 | 1015.6 |
| 20260505040019 | 66 | 0 | 0.0 | 1.7 | 0.00 | 0.00 | 0.00 | 59 | 1015.5 |
| 20260505035506 | 66 | 0 | 0.0 | 9.6 | 0.00 | 0.00 | 0.00 | 59 | 1015.4 |
| 20260505035005 | 66 | 0 | 0.0 | 9.6 | 0.00 | 0.00 | 0.00 | 59 | 1015.7 |
| 20260505034506 | 66 | 295 | 1.7 | 9.6 | 0.00 | 0.00 | 0.00 | 59 | 1015.4 |
| 20260505033506 | 67 | 0 | 0.0 | 3.5 | 0.00 | 0.00 | 0.00 | 59 | 1015.3 |
| 20260505032005 | 67 | 0 | 0.0 | 7.0 | 0.00 | 0.00 | 0.00 | 59 | 1015.4 |
| 20260505031506 | 67 | 0 | 0.0 | 7.0 | 0.00 | 0.00 | 0.00 | 60 | 1015.2 |
| 20260505031006 | 67 | 0 | 0.0 | 5.2 | 0.00 | 0.00 | 0.00 | 60 | 1015.3 |
| 20260505030506 | 67 | 0 | 0.0 | 5.2 | 0.00 | 0.00 | 0.00 | 60 | 1015.3 |
| 20260505030011 | 67 | 0 | 0.0 | 5.2 | 0.00 | 0.00 | 0.00 | 60 | 1015.6 |
| 20260505025506 | 67 | 0 | 0.0 | 8.7 | 0.00 | 0.00 | 0.00 | 60 | 1015.4 |
| 20260505025006 | 67 | 0 | 0.0 | 8.7 | 0.00 | 0.00 | 0.00 | 60 | 1015.4 |
| 20260505024505 | 67 | 122 | 1.7 | 8.7 | 0.00 | 0.00 | 0.00 | 60 | 1015.2 |
| 20260505024006 | 68 | 0 | 0.0 | 3.5 | 0.00 | 0.00 | 0.00 | 60 | 1015.3 |
| 20260505023505 | 68 | 0 | 0.0 | 3.5 | 0.00 | 0.00 | 0.00 | 60 | 1015.3 |
| 20260505023006 | 68 | 0 | 0.0 | 5.2 | 0.00 | 0.00 | 0.00 | 60 | 1015.3 |
| 20260505022006 | 68 | 0 | 0.0 | 11.3 | 0.00 | 0.00 | 0.00 | 60 | 1015.3 |
| 20260505021506 | 68 | 0 | 0.0 | 11.3 | 0.00 | 0.00 | 0.00 | 60 | 1015.3 |
| 20260505021006 | 68 | 0 | 0.0 | 5.2 | 0.00 | 0.00 | 0.00 | 60 | 1015.2 |
| 20260505020505 | 68 | 0 | 0.0 | 5.2 | 0.00 | 0.00 | 0.00 | 60 | 1015.4 |
| 20260505020009 | 68 | 0 | 0.0 | 5.2 | 0.00 | 0.00 | 0.00 | 60 | 1015.4 |
| 20260505015505 | 68 | 0 | 0.0 | 7.0 | 0.00 | 0.00 | 0.00 | 59 | 1015.4 |
| 20260505015006 | 68 | 0 | 0.0 | 7.0 | 0.00 | 0.00 | 0.00 | 59 | 1015.2 |
| 20260505014505 | 69 | 0 | 0.0 | 7.0 | 0.00 | 0.00 | 0.00 | 59 | 1015.3 |
| 20260505014006 | 69 | 0 | 0.0 | 5.2 | 0.00 | 0.00 | 0.00 | 59 | 1015.2 |
| 20260505013506 | 69 | 0 | 0.0 | 5.2 | 0.00 | 0.00 | 0.00 | 59 | 1015.1 |
| 20260505012506 | 69 | 0 | 0.0 | 11.3 | 0.00 | 0.00 | 0.00 | 59 | 1015.0 |
| 20260505012006 | 69 | 0 | 0.0 | 11.3 | 0.00 | 0.00 | 0.00 | 59 | 1015.0 |
| 20260505011506 | 69 | 0 | 0.0 | 5.2 | 0.00 | 0.00 | 0.00 | 59 | 1014.8 |
| 20260505011006 | 69 | 0 | 0.0 | 3.5 | 0.00 | 0.00 | 0.00 | 58 | 1014.8 |
| 20260505010009 | 69 | 0 | 0.0 | 8.7 | 0.00 | 0.00 | 0.00 | 58 | 1014.7 |
| 20260505004506 | 70 | 0 | 0.0 | 5.2 | 0.00 | 0.00 | 0.00 | 58 | 1014.5 |
| 20260505004006 | 70 | 0 | 0.0 | 7.0 | 0.00 | 0.00 | 0.00 | 57 | 1014.5 |
| 20260505003505 | 70 | 0 | 0.0 | 7.0 | 0.00 | 0.00 | 0.00 | 57 | 1014.5 |
| 20260505003006 | 70 | 0 | 0.0 | 5.2 | 0.00 | 0.00 | 0.00 | 57 | 1014.3 |
| 20260505002506 | 70 | 0 | 0.0 | 7.0 | 0.00 | 0.00 | 0.00 | 57 | 1014.3 |
| 20260505002006 | 71 | 0 | 0.0 | 7.0 | 0.00 | 0.00 | 0.00 | 57 | 1014.5 |
| 20260505001505 | 71 | 0 | 0.0 | 7.0 | 0.00 | 0.00 | 0.00 | 56 | 1014.5 |
| 20260505001006 | 71 | 0 | 0.0 | 1.7 | 0.00 | 0.00 | 0.00 | 56 | 1014.3 |
| 20260505000506 | 71 | 0 | 0.0 | 0.0 | 0.00 | 0.00 | 0.00 | 55 | 1014.2 |
| 20260504235506 | 71 | 0 | 0.0 | 0.0 | 0.00 | 0.00 | 0.00 | 54 | 1014.1 |
| 20260504234505 | 72 | 0 | 0.0 | 7.0 | 0.00 | 0.00 | 0.00 | 53 | 1014.0 |
| 20260504234006 | 72 | 0 | 0.0 | 11.3 | 0.00 | 0.00 | 0.00 | 53 | 1013.9 |
| 20260504233505 | 72 | 0 | 0.0 | 11.3 | 0.00 | 0.00 | 0.00 | 52 | 1013.9 |
| 20260504233006 | 72 | 0 | 0.0 | 11.3 | 0.00 | 0.00 | 0.00 | 52 | 1013.8 |
| 20260504232506 | 72 | 182 | 1.7 | 11.3 | 0.00 | 0.00 | 0.00 | 52 | 1013.7 |
| 20260504232005 | 73 | 208 | 1.7 | 8.7 | 0.00 | 0.00 | 0.00 | 52 | 1013.7 |
| 20260504231506 | 73 | 0 | 0.0 | 9.6 | 0.00 | 0.00 | 0.00 | 52 | 1013.6 |
| 20260504231006 | 73 | 142 | 1.7 | 9.6 | 0.00 | 0.00 | 0.00 | 52 | 1013.6 |
| 20260504230505 | 73 | 0 | 0.0 | 8.7 | 0.00 | 0.00 | 0.00 | 51 | 1013.6 |
| 20260504230009 | 73 | 0 | 0.0 | 11.3 | 0.00 | 0.00 | 0.00 | 51 | 1013.5 |
| 20260504225505 | 73 | 0 | 0.0 | 11.3 | 0.00 | 0.00 | 0.00 | 51 | 1013.4 |
| 20260504225006 | 74 | 123 | 1.7 | 9.6 | 0.00 | 0.00 | 0.00 | 51 | 1013.3 |
| 20260504224506 | 74 | 0 | 0.0 | 9.6 | 0.00 | 0.00 | 0.00 | 51 | 1013.3 |
| 20260504224006 | 74 | 149 | 1.7 | 9.6 | 0.00 | 0.00 | 0.00 | 50 | 1013.3 |
| 20260504223505 | 74 | 0 | 0.0 | 9.6 | 0.00 | 0.00 | 0.00 | 49 | 1013.3 |
| 20260504223007 | 75 | 154 | 1.7 | 11.3 | 0.00 | 0.00 | 0.00 | 50 | 1013.2 |
| 20260504222506 | 75 | 132 | 1.7 | 18.2 | 0.00 | 0.00 | 0.00 | 49 | 1013.1 |
| 20260504221505 | 75 | 0 | 0.0 | 14.8 | 0.00 | 0.00 | 0.00 | 47 | 1013.1 |
| 20260504220506 | 76 | 166 | 4.3 | 20.0 | 0.00 | 0.00 | 0.00 | 45 | 1013.3 |
| 20260504220009 | 77 | 0 | 0.0 | 14.8 | 0.00 | 0.00 | 0.00 | 44 | 1013.2 |
| 20260504215505 | 77 | 0 | 0.0 | 14.8 | 0.00 | 0.00 | 0.00 | 42 | 1013.2 |
| 20260504215006 | 78 | 0 | 0.0 | 14.8 | 0.00 | 0.00 | 0.00 | 41 | 1013.1 |
| 20260504214506 | 78 | 144 | 11.3 | 14.8 | 0.00 | 0.00 | 0.00 | 38 | 1013.2 |
| 20260504214005 | 79 | 186 | 1.7 | 13.0 | 0.00 | 0.00 | 0.00 | 33 | 1013.3 |
| 20260504213506 | 79 | 213 | 1.7 | 9.6 | 0.00 | 0.00 | 0.00 | 28 | 1013.3 |
| 20260504213006 | 79 | 0 | 0.0 | 13.0 | 0.00 | 0.00 | 0.00 | 27 | 1013.2 |
| 20260504212505 | 79 | 0 | 0.0 | 13.0 | 0.00 | 0.00 | 0.00 | 28 | 1013.2 |
| 20260504212006 | 79 | 150 | 1.7 | 11.3 | 0.00 | 0.00 | 0.00 | 30 | 1013.2 |
| 20260504211505 | 79 | 0 | 0.0 | 11.3 | 0.00 | 0.00 | 0.00 | 29 | 1013.2 |
| 20260504211006 | 79 | 235 | 4.3 | 11.3 | 0.00 | 0.00 | 0.00 | 30 | 1013.2 |
| 20260504210009 | 79 | 206 | 1.7 | 13.0 | 0.00 | 0.00 | 0.00 | 29 | 1013.2 |
| 20260504205505 | 80 | 203 | 1.7 | 13.0 | 0.00 | 0.00 | 0.00 | 28 | 1013.2 |
| 20260504205006 | 80 | 220 | 6.1 | 13.0 | 0.00 | 0.00 | 0.00 | 28 | 1013.3 |
| 20260504204006 | 80 | 182 | 4.3 | 9.6 | 0.00 | 0.00 | 0.00 | 28 | 1013.3 |
| 20260504203506 | 80 | 0 | 0.0 | 8.7 | 0.00 | 0.00 | 0.00 | 28 | 1013.4 |
| 20260504203006 | 80 | 0 | 0.0 | 11.3 | 0.00 | 0.00 | 0.00 | 28 | 1013.3 |
| 20260504202505 | 80 | 204 | 6.1 | 16.5 | 0.00 | 0.00 | 0.00 | 28 | 1013.4 |
| 20260504201506 | 80 | 212 | 6.1 | 21.7 | 0.00 | 0.00 | 0.00 | 27 | 1013.4 |
| 20260504201005 | 80 | 225 | 1.7 | 21.7 | 0.00 | 0.00 | 0.00 | 28 | 1013.5 |
| 20260504200506 | 80 | 268 | 7.8 | 25.2 | 0.00 | 0.00 | 0.00 | 28 | 1013.5 |